DW7530 Weather Reports


time (UTC)temp
F
wind
direction
speed
knots
gust
knots
rain 1hr
in
rain 24hr
in
rain mn
in
humidity
%
barometer
mb
20260505211511 59 168 1.7 5.2 0.00 0.00 0.00 75 1005.6
20260505210006 58 168 1.7 5.2 0.00 0.00 0.00 76 1005.5
20260505204503 59 145 2.6 7.0 0.00 0.00 0.00 74 1005.6
20260505203002 59 122 2.6 6.1 0.00 0.00 0.00 74 1005.6
20260505201501 59 145 2.6 6.1 0.00 0.00 0.00 75 1005.7
20260505200101 59 144 2.6 7.0 0.00 0.00 0.00 74 1005.8
20260505194600 59 127 1.7 6.1 0.00 0.00 0.00 76 1005.8
20260505193057 58 115 1.7 7.0 0.00 0.00 0.00 76 1006.2
20260505191558 58 135 3.5 7.0 0.00 0.00 0.00 76 1006.2
20260505190055 58 144 3.5 7.0 0.00 0.00 0.00 76 1006.4
20260505184555 58 178 0.9 5.2 0.00 0.01 0.00 76 1006.3
20260505183053 58 162 3.5 7.0 0.00 0.01 0.00 76 1006.3
20260505181552 58 135 3.5 7.0 0.00 0.01 0.00 76 1006.6
20260505180055 57 145 3.5 7.0 0.00 0.01 0.00 77 1006.9
20260505174547 58 137 1.7 6.1 0.00 0.01 0.00 76 1007.3
20260505173045 58 174 1.7 7.8 0.00 0.01 0.00 75 1007.2
20260505171544 59 126 0.9 6.1 0.00 0.01 0.00 76 1007.5
20260505170044 59 125 1.7 7.8 0.00 0.01 0.00 74 1007.7
20260505164543 60 163 2.6 6.1 0.00 0.01 0.00 72 1007.7
20260505163040 58 125 0.9 5.2 0.00 0.01 0.00 75 1007.7
20260505161540 57 135 2.6 6.1 0.00 0.01 0.00 76 1008.3
20260505153044 57 114 2.6 5.2 0.00 0.01 0.00 75 1008.1
20260505151542 58 116 3.5 7.0 0.00 0.01 0.00 75 1008.2
20260505124525 54 116 0.9 5.2 0.00 0.01 0.00 77 1008.9
20260505123023 55 132 0.9 3.5 0.00 0.01 0.00 77 1009.2
20260505121520 53 140 0.0 4.3 0.00 0.01 0.00 79 1009.2
20260505120021 53 140 1.7 3.5 0.00 0.01 0.00 80 1009.3
20260505114515 52 134 0.0 4.3 0.00 0.01 0.00 81 1009.4
20260505113022 51 152 0.0 3.5 0.00 0.01 0.00 84 1009.3
20260505111525 49 152 0.0 1.7 0.00 0.01 0.00 86 1009.2
20260505101521 46 210 0.0 1.7 0.00 0.01 0.00 89 1009.0
20260505100010 45 210 0.0 1.7 0.00 0.01 0.00 88 1009.0
20260505094509 45 210 0.0 0.9 0.00 0.01 0.00 88 1009.0
20260505093007 46 210 0.0 0.9 0.00 0.01 0.00 86 1008.9
20260505091506 47 210 0.0 0.0 0.00 0.01 0.00 83 1008.8
20260505090006 49 210 0.0 0.9 0.00 0.01 0.00 79 1008.8
20260505084523 50 210 0.9 3.5 0.00 0.01 0.00 78 1008.7
20260505083005 51 210 0.0 5.2 0.00 0.01 0.00 76 1008.8
20260505081502 50 210 1.7 5.2 0.00 0.01 0.00 79 1008.8
20260505074600 46 211 0.0 0.0 0.00 0.01 0.00 86 1008.8
20260505073103 47 211 0.0 0.0 0.00 0.01 0.00 85 1008.8
20260505071601 46 211 0.0 0.9 0.00 0.01 0.00 87 1008.8
20260505070105 45 211 0.0 0.0 0.00 0.01 0.00 87 1008.7
20260505064559 45 211 0.0 0.0 0.00 0.01 0.00 86 1008.7
20260505063055 46 211 0.0 0.0 0.00 0.01 0.00 86 1008.7
20260505061613 46 210 0.0 0.0 0.00 0.01 0.00 85 1008.6
20260505060058 47 210 0.0 1.7 0.00 0.01 0.00 83 1008.6
20260505054556 49 211 0.0 1.7 0.00 0.01 0.00 82 1008.5
20260505053049 48 211 0.0 3.5 0.00 0.01 0.00 84 1008.5
20260505051545 43 137 0.0 0.0 0.00 0.01 0.00 91 1008.4
20260505041546 43 137 0.0 0.0 0.00 0.01 0.00 91 1008.3
20260505040055 43 137 0.0 0.0 0.00 0.01 0.00 90 1008.2
20260505034543 44 137 0.0 0.0 0.00 0.01 0.01 90 1008.3
20260505033039 44 137 0.0 0.0 0.00 0.01 0.01 90 1008.1
20260505031547 44 137 0.0 0.0 0.00 0.01 0.01 89 1008.2
20260505030042 45 137 0.0 0.0 0.00 0.01 0.01 89 1008.2
20260505024538 45 137 0.0 0.0 0.00 0.01 0.01 89 1008.3
20260505023037 45 137 0.0 0.0 0.00 0.01 0.01 89 1008.1
20260505021538 45 137 0.0 0.0 0.00 0.01 0.01 89 1008.3
20260505020041 45 137 0.0 0.0 0.00 0.01 0.01 88 1008.1
20260505014541 45 137 0.0 0.0 0.00 0.01 0.01 87 1008.1
20260505013035 46 137 0.0 0.0 0.00 0.01 0.01 87 1008.0
20260505011537 46 137 0.0 0.0 0.00 0.01 0.01 86 1007.9
20260505010036 47 137 0.0 0.0 0.00 0.01 0.01 85 1007.9
20260505004534 47 137 0.0 1.7 0.00 0.01 0.01 83 1007.8
20260505003032 49 139 0.0 3.5 0.00 0.01 0.01 80 1007.3
20260505001533 51 141 0.0 0.0 0.00 0.01 0.01 77 1007.1
20260505000046 52 141 0.0 0.0 0.00 0.01 0.01 73 1007.1
20260504234535 54 141 0.0 0.0 0.00 0.01 0.01 71 1006.9
20260504233031 56 141 0.9 4.3 0.00 0.01 0.01 67 1006.5
20260504231530 60 214 0.0 0.0 0.00 0.01 0.01 58 1006.2
20260504230030 61 214 0.0 0.9 0.00 0.01 0.01 56 1006.2
20260504224530 61 214 0.0 5.2 0.00 0.01 0.01 56 1006.1
20260504223029 61 310 0.9 5.2 0.00 0.01 0.01 54 1006.0
20260504221529 62 215 0.9 7.0 0.00 0.01 0.01 53 1005.9
20260504220042 61 320 0.9 4.3 0.00 0.01 0.01 56 1006.0
20260504214533 61 196 0.0 7.0 0.00 0.01 0.01 55 1005.9
20260504213031 62 204 1.7 8.7 0.00 0.01 0.01 54 1005.8